TimeCDT,TemperatureF,Dew PointF,Humidity,Sea Level PressureIn,VisibilityMPH,Wind Direction,Wind SpeedMPH,Gust SpeedMPH,PrecipitationIn,Events,Conditions,WindDirDegrees,DateUTC
12:53 AM,60.1,51.1,72,29.99,10.0,SSE,11.5,-,N/A,,Overcast,150,2013-09-17 05:53:00
1:19 AM,60.8,51.8,72,30.00,10.0,SSE,10.4,-,N/A,,Overcast,150,2013-09-17 06:19:00
1:53 AM,60.1,51.1,72,29.97,10.0,SSE,15.0,-,N/A,,Overcast,150,2013-09-17 06:53:00
2:53 AM,61.0,52.0,72,29.95,10.0,SSE,16.1,-,N/A,,Overcast,160,2013-09-17 07:53:00
3:53 AM,60.1,52.0,75,29.93,10.0,SSE,13.8,-,N/A,,Overcast,150,2013-09-17 08:53:00
4:53 AM,61.0,53.1,75,29.90,10.0,SSE,16.1,-,N/A,,Overcast,160,2013-09-17 09:53:00
5:53 AM,60.1,53.1,78,29.88,10.0,SSE,15.0,-,N/A,,Overcast,150,2013-09-17 10:53:00
6:53 AM,59.0,53.1,81,29.88,10.0,SE,15.0,-,N/A,,Overcast,140,2013-09-17 11:53:00
7:53 AM,59.0,53.1,81,29.88,10.0,SE,11.5,-,N/A,,Overcast,140,2013-09-17 12:53:00
8:53 AM,61.0,54.0,78,29.86,10.0,SE,15.0,-,N/A,,Mostly Cloudy,130,2013-09-17 13:53:00
9:13 AM,62.6,53.6,72,29.86,10.0,SE,13.8,-,N/A,,Scattered Clouds,140,2013-09-17 14:13:00
9:36 AM,64.4,53.6,68,29.86,10.0,SSE,15.0,-,N/A,,Mostly Cloudy,150,2013-09-17 14:36:00
9:53 AM,66.0,55.0,68,29.85,10.0,SSE,16.1,-,N/A,,Overcast,150,2013-09-17 14:53:00
10:53 AM,69.1,55.9,63,29.83,10.0,SSE,19.6,25.3,N/A,,Overcast,150,2013-09-17 15:53:00
11:19 AM,71.6,55.4,57,29.84,10.0,South,16.1,25.3,N/A,,Scattered Clouds,170,2013-09-17 16:19:00
11:53 AM,73.0,57.0,57,29.80,10.0,SSE,16.1,25.3,N/A,,Clear,160,2013-09-17 16:53:00
12:53 PM,75.0,57.9,55,29.77,10.0,SSE,19.6,-,N/A,,Clear,150,2013-09-17 17:53:00
1:53 PM,77.0,57.9,52,29.75,10.0,SSE,16.1,27.6,N/A,,Clear,160,2013-09-17 18:53:00
2:53 PM,78.1,57.9,50,29.73,10.0,SE,18.4,25.3,N/A,,Clear,130,2013-09-17 19:53:00
3:53 PM,79.0,59.0,50,29.70,10.0,SE,16.1,24.2,N/A,,Clear,140,2013-09-17 20:53:00
4:53 PM,79.0,59.0,50,29.68,10.0,SE,15.0,24.2,N/A,,Clear,140,2013-09-17 21:53:00
5:53 PM,79.0,59.0,50,29.67,10.0,SE,17.3,-,N/A,,Clear,130,2013-09-17 22:53:00
6:53 PM,75.0,60.1,60,29.67,10.0,ESE,17.3,-,N/A,,Clear,110,2013-09-17 23:53:00
7:53 PM,70.0,60.1,71,29.67,10.0,East,11.5,-,N/A,,Clear,100,2013-09-18 00:53:00
8:53 PM,68.0,60.1,76,29.68,10.0,ESE,13.8,20.7,N/A,,Clear,110,2013-09-18 01:53:00
9:53 PM,66.9,61.0,81,29.67,10.0,ESE,16.1,-,N/A,,Clear,110,2013-09-18 02:53:00
10:53 PM,66.0,61.0,84,29.65,10.0,ESE,12.7,20.7,N/A,,Clear,120,2013-09-18 03:53:00
11:53 PM,64.9,61.0,87,29.64,10.0,ESE,15.0,-,N/A,,Clear,120,2013-09-18 04:53:00